TEVEL2-4

Last updated on Fri Dec 19 2025 00:03:12 GMT+0000 (Coordinated Universal Time)

1 63213U 25052D 25352.22004022 .00015813 00000+0 59393-3 0 9997 2 63213 97.4108 244.0112 0004821 51.5127 308.6544 15.27261937 42421
UTC large
Height (km)
Speed (km/s)
/
Latitude / Longitude
Inclination (degrees)
Orbital Period (minutes)
Azimuth
Elevation
Range (km)
Doppler Factor

Next 0 passes for location: London (51.5072 / 0.1276)

Sorry there are no passes over London.